Mount Holly, NJ

11:06 AM EST on December 10, 2019 (GMT -0500)
South Jersey Regional

Weather History for KVAY - October, 2019

Change the Weather History Date:

Wednesday, October 30, 2019

  Actual Average (KPNE) Record (KPNE)
Temperature  
Mean Temperature 62 °F -  
Max Temperature 64 °F 58 °F 79 °F (2016)
Min Temperature 59 °F 40 °F 33 °F (2011)
Degree Days  
Heating Degree Days 4    
Growing Degree Days 12 (Base 50)    
Moisture  
Dew Point 60 °F    
Average Humidity 94    
Maximum Humidity 97    
Minimum Humidity 90    
Precipitation  
Precipitation 0.01 in - - ()
Sea Level Pressure  
Sea Level Pressure 30.21 in    
Wind  
Wind Speed 3 mph (North)    
Max Wind Speed 7 mph    
Max Gust Speed -    
Visibility 4 miles    
Events Fog , Rain    
Averages and records for this station are not official NWS values.
T = Trace of Precipitation, MM = Missing Value Source: NWS Daily Summary

Daily Weather History Graph

Daily Weather History Graph

Search for Another Location

Airport or City:

Astronomy

Oct. 30, 2019 Rise Set
Actual Time 7:25 AM EDT 5:59 PM EDT
Civil Twilight 6:57 AM EDT 6:27 PM EDT
Nautical Twilight 6:25 AM EDT 6:59 PM EDT
Astronomical Twilight 5:54 AM EDT 7:30 PM EDT
Moon 10:06 AM EDT (10/30) 8:05 PM EDT (10/30)
Length of Visible Light 11h 29m
Length of Day
10h 33m
Waxing Crescent, 8% of the Moon is Illuminated
Oct 30
Waxing Crescent
Nov 4
First Quarter
Nov 12
Full
Nov 19
Last Quarter
Nov 26
New

Hourly Weather History & Observations

Time (EDT) Temp. Dew Point Humidity Pressure Visibility Wind Dir Wind Speed Gust Speed Precip Events Conditions
12:04 AM 60.1 °F 59.0 °F 96% 30.26 in 1.8 mi Calm Calm - N/A   Overcast
12:22 AM 60.1 °F 59.0 °F 96% 30.26 in 2.5 mi Calm Calm - N/A   Overcast
12:28 AM 60.1 °F 59.0 °F 96% 30.26 in 1.0 mi North 3.5 mph - N/A   Mist
12:54 AM 60.1 °F 59.0 °F 96% 30.26 in 2.0 mi North 3.5 mph - N/A   Overcast
1:41 AM 60.1 °F 59.0 °F 96% 30.26 in 1.8 mi NNW 3.5 mph - N/A   Overcast
1:54 AM 60.1 °F 59.0 °F 96% 30.26 in 1.8 mi NNW 3.5 mph - N/A   Overcast
2:29 AM 60.1 °F 57.9 °F 93% 30.26 in 1.5 mi North 4.6 mph - N/A   Overcast
2:54 AM 60.1 °F 59.0 °F 96% 30.26 in 1.8 mi North 4.6 mph - N/A   Overcast
3:34 AM 60.1 °F 59.0 °F 96% 30.24 in 2.0 mi North 4.6 mph - N/A   Overcast
3:54 AM 60.1 °F 59.0 °F 96% 30.24 in 2.5 mi North 3.5 mph - N/A   Overcast
4:01 AM 60.1 °F 57.9 °F 93% 30.24 in 3.0 mi North 4.6 mph - N/A   Overcast
4:29 AM 60.1 °F 59.0 °F 96% 30.24 in 2.5 mi North 3.5 mph - N/A   Overcast
4:45 AM 60.1 °F 57.9 °F 93% 30.24 in 3.0 mi North 5.8 mph - N/A   Overcast
4:54 AM 59.0 °F 57.9 °F 96% 30.24 in 2.5 mi North 6.9 mph - N/A   Overcast
5:17 AM 59.0 °F 57.9 °F 96% 30.24 in 3.0 mi NNE 4.6 mph - N/A   Overcast
5:45 AM 59.0 °F 57.9 °F 96% 30.24 in 2.5 mi NNE 4.6 mph - N/A   Overcast
5:54 AM 59.0 °F 57.9 °F 96% 30.25 in 2.5 mi NNE 3.5 mph - N/A   Overcast
6:18 AM 59.0 °F 57.9 °F 96% 30.25 in 3.0 mi NNE 3.5 mph - N/A   Overcast
6:54 AM 59.0 °F 57.9 °F 96% 30.25 in 3.0 mi NNE 4.6 mph - N/A   Overcast
7:10 AM 59.0 °F 57.9 °F 96% 30.26 in 2.0 mi North 4.6 mph - N/A   Overcast
7:35 AM 59.0 °F 57.9 °F 96% 30.26 in 1.0 mi NNE 3.5 mph - N/A   Overcast
7:44 AM 59.0 °F 57.9 °F 96% 30.27 in 0.8 mi NNE 3.5 mph - N/A   Overcast
7:52 AM 59.0 °F 57.2 °F 94% 30.26 in 1.2 mi NNE 4.6 mph - N/A   Overcast
7:54 AM 59.0 °F 57.9 °F 96% 30.27 in 1.2 mi NNE 3.5 mph - N/A   Overcast
8:14 AM 60.1 °F 57.9 °F 93% 30.27 in 1.0 mi NNE 3.5 mph - N/A   Overcast
8:23 AM 60.1 °F 59.0 °F 96% 30.27 in 0.5 mi NE 3.5 mph - N/A Fog Fog
8:38 AM 60.1 °F 59.0 °F 96% 30.27 in 1.2 mi NNE 3.5 mph - N/A   Overcast
8:51 AM 60.8 °F 59.0 °F 94% 30.26 in 3.0 mi NNE 4.6 mph - N/A   Overcast
8:52 AM 60.1 °F 59.0 °F 96% 30.26 in 3.0 mi NNE 4.6 mph - N/A   Overcast
9:54 AM 62.1 °F 60.1 °F 93% 30.26 in 8.0 mi Variable 3.5 mph - N/A   Overcast
10:54 AM 62.1 °F 60.1 °F 93% 30.26 in 9.0 mi NNE 4.6 mph - N/A   Overcast
11:32 AM 62.1 °F 61.0 °F 96% 30.25 in 2.0 mi North 3.5 mph - N/A   Overcast
11:40 AM 63.0 °F 61.0 °F 93% 30.25 in 1.5 mi NNE 3.5 mph - N/A   Overcast
11:54 AM 63.0 °F 61.0 °F 93% 30.25 in 1.2 mi Calm Calm - N/A   Overcast
12:29 PM 64.0 °F 61.0 °F 90% 30.24 in 3.0 mi Calm Calm - N/A   Overcast
12:47 PM 64.0 °F 61.0 °F 90% 30.23 in 5.0 mi Variable 3.5 mph - N/A   Overcast
12:54 PM 64.0 °F 61.0 °F 90% 30.22 in 4.0 mi NNE 3.5 mph - N/A   Overcast
1:05 PM 64.0 °F 61.0 °F 90% 30.21 in 2.0 mi NNE 3.5 mph - N/A   Overcast
1:18 PM 64.0 °F 61.0 °F 90% 30.21 in 4.0 mi NNE 3.5 mph - N/A   Overcast
1:33 PM 64.0 °F 61.0 °F 90% 30.20 in 1.8 mi Calm Calm - 0.00 in Rain Light Rain
1:54 PM 64.0 °F 62.1 °F 93% 30.20 in 3.0 mi NNW 3.5 mph - 0.00 in   Overcast
2:19 PM 64.0 °F 62.1 °F 93% 30.19 in 2.0 mi Variable 3.5 mph - 0.00 in   Overcast
2:27 PM 64.0 °F 62.1 °F 93% 30.19 in 1.5 mi WNW 3.5 mph - 0.00 in   Overcast
2:40 PM 64.0 °F 62.1 °F 93% 30.18 in 1.2 mi Calm Calm - 0.00 in   Overcast
2:45 PM 64.0 °F 62.1 °F 93% 30.18 in 1.0 mi NW 4.6 mph - 0.00 in Rain Light Rain
2:54 PM 63.0 °F 62.1 °F 97% 30.19 in 1.0 mi NW 3.5 mph - 0.00 in Rain Light Rain
3:04 PM 63.0 °F 62.1 °F 97% 30.18 in 1.8 mi NNW 4.6 mph - 0.00 in   Overcast
3:07 PM 64.0 °F 62.1 °F 93% 30.18 in 2.5 mi NW 4.6 mph - 0.00 in   Overcast
3:21 PM 64.0 °F 62.1 °F 93% 30.18 in 3.0 mi North 3.5 mph - 0.00 in   Overcast
3:36 PM 64.0 °F 62.1 °F 93% 30.18 in 2.5 mi NNW 3.5 mph - 0.01 in   Overcast
3:40 PM 64.0 °F 62.1 °F 93% 30.18 in 1.8 mi Calm Calm - 0.01 in   Overcast
3:49 PM 64.4 °F 62.6 °F 94% 30.17 in 1.8 mi NNW 3.5 mph - 0.01 in   Overcast
3:54 PM 64.0 °F 62.1 °F 93% 30.17 in 2.0 mi North 4.6 mph - 0.01 in   Overcast
4:05 PM 64.0 °F 62.1 °F 93% 30.17 in 4.0 mi North 3.5 mph - N/A   Overcast
4:19 PM 64.0 °F 62.1 °F 93% 30.16 in 4.0 mi NNE 3.5 mph - 0.00 in Rain Light Rain
4:40 PM 64.0 °F 62.1 °F 93% 30.17 in 5.0 mi Calm Calm - 0.00 in   Overcast
4:54 PM 64.0 °F 62.1 °F 93% 30.17 in 3.0 mi NNE 3.5 mph - 0.00 in   Overcast
5:06 PM 64.0 °F 62.1 °F 93% 30.16 in 4.0 mi NNE 3.5 mph - N/A   Overcast
5:45 PM 63.0 °F 62.1 °F 97% 30.16 in 10.0 mi Calm Calm - N/A   Overcast
5:54 PM 63.0 °F 62.1 °F 97% 30.16 in 10.0 mi Calm Calm - N/A   Overcast
6:17 PM 63.0 °F 62.1 °F 97% 30.16 in 10.0 mi Calm Calm - N/A   Overcast
6:45 PM 63.0 °F 61.0 °F 93% 30.16 in 8.0 mi Calm Calm - N/A   Mostly Cloudy
6:54 PM 63.0 °F 61.0 °F 93% 30.15 in 6.0 mi Calm Calm - N/A   Scattered Clouds
7:04 PM 62.1 °F 61.0 °F 96% 30.16 in 6.0 mi Calm Calm - N/A   Mostly Cloudy
7:54 PM 62.1 °F 61.0 °F 96% 30.15 in 5.0 mi Calm Calm - N/A   Overcast
8:05 PM 62.1 °F 61.0 °F 96% 30.15 in 5.0 mi Calm Calm - N/A   Overcast
8:54 PM 62.1 °F 61.0 °F 96% 30.14 in 8.0 mi Calm Calm - N/A   Overcast
9:54 PM 62.1 °F 61.0 °F 96% 30.12 in 7.0 mi Calm Calm - N/A   Overcast
10:04 PM 63.0 °F 61.0 °F 93% 30.12 in 7.0 mi Calm Calm - N/A   Overcast
10:26 PM 63.0 °F 61.0 °F 93% 30.12 in 8.0 mi SSE 3.5 mph - N/A   Overcast
10:39 PM 63.0 °F 61.0 °F 93% 30.11 in 8.0 mi SE 3.5 mph - N/A   Overcast
10:54 PM 63.0 °F 61.0 °F 93% 30.11 in 7.0 mi Calm Calm - N/A   Overcast
11:02 PM 63.0 °F 61.0 °F 93% 30.11 in 6.0 mi Calm Calm - N/A   Overcast
11:28 PM 63.0 °F 61.0 °F 93% 30.11 in 6.0 mi Variable 3.5 mph - N/A   Overcast
11:54 PM 63.0 °F 61.0 °F 93% 30.10 in 3.0 mi Calm Calm - 0.00 in Rain Light Rain